| time (UTC) | temp C | wind direction | speed KPH | gust KPH | rain 1hr cm | rain 24hr cm | rain mn cm | humidity % | barometer mb |
| 20260510153515 | 15 | 23 | 6.4 | 16.1 | 0.00 | 0.00 | 0.00 | 69 | 1014.9 |
| 20260510152515 | 15 | 23 | 8.0 | 19.3 | 0.00 | 0.00 | 0.00 | 68 | 1014.9 |
| 20260510151556 | 15 | 23 | 9.7 | 20.9 | 0.00 | 0.00 | 0.00 | 68 | 1014.9 |
| 20260510150516 | 15 | 0 | 8.0 | 20.9 | 0.00 | 0.00 | 0.00 | 68 | 1015.1 |
| 20260510145515 | 15 | 0 | 6.4 | 14.5 | 0.00 | 0.00 | 0.00 | 68 | 1015.1 |
| 20260510144515 | 15 | 0 | 6.4 | 20.9 | 0.00 | 0.00 | 0.00 | 69 | 1015.2 |
| 20260510143536 | 15 | 338 | 8.0 | 17.7 | 0.00 | 0.00 | 0.00 | 69 | 1015.3 |
| 20260510142516 | 15 | 0 | 6.4 | 17.7 | 0.00 | 0.00 | 0.00 | 67 | 1015.5 |
| 20260510141515 | 16 | 0 | 4.8 | 14.5 | 0.00 | 0.00 | 0.00 | 68 | 1015.6 |
| 20260510140515 | 16 | 0 | 6.4 | 19.3 | 0.00 | 0.00 | 0.00 | 67 | 1015.6 |
| 20260510135515 | 16 | 0 | 4.8 | 12.9 | 0.00 | 0.00 | 0.00 | 66 | 1015.6 |
| 20260510134515 | 16 | 0 | 4.8 | 14.5 | 0.00 | 0.00 | 0.00 | 65 | 1015.6 |
| 20260510133515 | 15 | 0 | 6.4 | 14.5 | 0.00 | 0.00 | 0.00 | 67 | 1015.5 |
| 20260510132536 | 15 | 23 | 4.8 | 12.9 | 0.00 | 0.00 | 0.00 | 67 | 1015.5 |
| 20260510131515 | 15 | 23 | 8.0 | 17.7 | 0.00 | 0.00 | 0.00 | 67 | 1015.4 |
| 20260510130517 | 15 | 23 | 6.4 | 17.7 | 0.00 | 0.00 | 0.00 | 68 | 1015.6 |
| 20260510125517 | 15 | 0 | 6.4 | 14.5 | 0.00 | 0.00 | 0.00 | 68 | 1015.8 |
| 20260510124517 | 15 | 0 | 6.4 | 19.3 | 0.00 | 0.00 | 0.00 | 68 | 1016.0 |
| 20260510123537 | 15 | 0 | 4.8 | 14.5 | 0.00 | 0.00 | 0.00 | 68 | 1016.0 |
| 20260510122517 | 15 | 0 | 6.4 | 17.7 | 0.00 | 0.00 | 0.00 | 68 | 1016.2 |
| 20260510121517 | 15 | 0 | 8.0 | 17.7 | 0.00 | 0.00 | 0.00 | 70 | 1016.3 |
| 20260510120517 | 15 | 0 | 6.4 | 14.5 | 0.00 | 0.00 | 0.00 | 70 | 1016.4 |
| 20260510115517 | 15 | 23 | 6.4 | 16.1 | 0.00 | 0.00 | 0.00 | 70 | 1016.4 |
| 20260510114517 | 15 | 0 | 6.4 | 20.9 | 0.00 | 0.00 | 0.00 | 69 | 1016.3 |
| 20260510113537 | 15 | 23 | 4.8 | 14.5 | 0.00 | 0.00 | 0.00 | 70 | 1016.7 |
| 20260510112517 | 15 | 0 | 6.4 | 16.1 | 0.00 | 0.00 | 0.00 | 69 | 1016.6 |
| 20260510111517 | 15 | 23 | 6.4 | 14.5 | 0.00 | 0.00 | 0.00 | 69 | 1016.8 |
| 20260510110517 | 14 | 338 | 8.0 | 17.7 | 0.00 | 0.00 | 0.00 | 69 | 1016.7 |
| 20260510105537 | 15 | 0 | 8.0 | 17.7 | 0.00 | 0.00 | 0.00 | 68 | 1016.7 |
| 20260510104537 | 14 | 0 | 8.0 | 19.3 | 0.00 | 0.00 | 0.00 | 70 | 1016.7 |
| 20260510103518 | 14 | 0 | 8.0 | 17.7 | 0.00 | 0.00 | 0.00 | 68 | 1016.7 |
| 20260510102517 | 14 | 0 | 6.4 | 17.7 | 0.00 | 0.00 | 0.00 | 71 | 1016.8 |
| 20260510101517 | 14 | 0 | 6.4 | 19.3 | 0.00 | 0.00 | 0.00 | 70 | 1016.7 |
| 20260510100537 | 13 | 45 | 8.0 | 24.1 | 0.00 | 0.00 | 0.00 | 71 | 1016.7 |
| 20260510095537 | 13 | 23 | 9.7 | 19.3 | 0.00 | 0.00 | 0.00 | 70 | 1016.7 |
| 20260510094517 | 13 | 0 | 8.0 | 20.9 | 0.00 | 0.00 | 0.00 | 71 | 1016.6 |
| 20260510093537 | 13 | 0 | 8.0 | 20.9 | 0.00 | 0.00 | 0.00 | 71 | 1016.7 |
| 20260510092517 | 13 | 0 | 6.4 | 14.5 | 0.00 | 0.00 | 0.00 | 71 | 1016.8 |
| 20260510091517 | 13 | 0 | 9.7 | 17.7 | 0.00 | 0.00 | 0.00 | 71 | 1016.9 |
| 20260510090517 | 13 | 0 | 6.4 | 20.9 | 0.00 | 0.00 | 0.00 | 72 | 1017.0 |
| 20260510085537 | 12 | 23 | 9.7 | 17.7 | 0.00 | 0.00 | 0.00 | 72 | 1017.1 |
| 20260510084517 | 12 | 45 | 8.0 | 16.1 | 0.00 | 0.00 | 0.00 | 72 | 1017.2 |
| 20260510083517 | 12 | 0 | 8.0 | 22.5 | 0.00 | 0.00 | 0.00 | 74 | 1017.2 |
| 20260510082517 | 12 | 0 | 8.0 | 16.1 | 0.00 | 0.00 | 0.00 | 76 | 1017.3 |
| 20260510081537 | 11 | 23 | 8.0 | 24.1 | 0.00 | 0.00 | 0.00 | 77 | 1017.3 |
| 20260510080537 | 11 | 23 | 6.4 | 14.5 | 0.00 | 0.00 | 0.00 | 77 | 1017.2 |
| 20260510075517 | 11 | 23 | 8.0 | 17.7 | 0.00 | 0.00 | 0.00 | 76 | 1017.3 |
| 20260510074517 | 12 | 0 | 6.4 | 20.9 | 0.00 | 0.00 | 0.00 | 75 | 1017.3 |
| 20260510073517 | 12 | 0 | 8.0 | 19.3 | 0.00 | 0.00 | 0.00 | 76 | 1017.2 |
| 20260510072517 | 12 | 338 | 6.4 | 14.5 | 0.00 | 0.00 | 0.00 | 76 | 1017.2 |
| 20260510071517 | 12 | 0 | 6.4 | 14.5 | 0.00 | 0.00 | 0.00 | 77 | 1017.1 |
| 20260510070517 | 11 | 45 | 6.4 | 14.5 | 0.00 | 0.00 | 0.00 | 78 | 1017.0 |
| 20260510065517 | 11 | 23 | 6.4 | 17.7 | 0.00 | 0.00 | 0.00 | 78 | 1017.0 |
| 20260510064537 | 11 | 23 | 6.4 | 16.1 | 0.00 | 0.00 | 0.00 | 79 | 1016.8 |
| 20260510063517 | 10 | 45 | 6.4 | 12.9 | 0.00 | 0.00 | 0.00 | 79 | 1016.7 |
| 20260510062517 | 10 | 23 | 6.4 | 17.7 | 0.00 | 0.00 | 0.00 | 80 | 1016.8 |
| 20260510061517 | 10 | 45 | 6.4 | 17.7 | 0.00 | 0.00 | 0.00 | 80 | 1016.6 |
| 20260510060517 | 10 | 23 | 8.0 | 20.9 | 0.00 | 0.00 | 0.00 | 80 | 1016.5 |
| 20260510055537 | 10 | 23 | 8.0 | 22.5 | 0.00 | 0.00 | 0.00 | 80 | 1016.5 |
| 20260510054517 | 10 | 45 | 8.0 | 20.9 | 0.00 | 0.00 | 0.00 | 79 | 1016.4 |
| 20260510053537 | 10 | 45 | 9.7 | 20.9 | 0.00 | 0.00 | 0.00 | 79 | 1016.4 |
| 20260510052537 | 10 | 45 | 9.7 | 19.3 | 0.00 | 0.00 | 0.00 | 78 | 1016.4 |
| 20260510051537 | 10 | 45 | 8.0 | 19.3 | 0.00 | 0.00 | 0.00 | 78 | 1016.5 |
| 20260510050537 | 10 | 23 | 8.0 | 17.7 | 0.00 | 0.00 | 0.00 | 77 | 1016.5 |
| 20260510045517 | 10 | 45 | 9.7 | 17.7 | 0.00 | 0.00 | 0.00 | 77 | 1016.5 |
| 20260510044536 | 10 | 45 | 6.4 | 16.1 | 0.00 | 0.00 | 0.00 | 76 | 1016.5 |
| 20260510043517 | 10 | 23 | 8.0 | 16.1 | 0.00 | 0.00 | 0.00 | 76 | 1016.6 |
| 20260510042517 | 11 | 23 | 6.4 | 17.7 | 0.00 | 0.00 | 0.00 | 75 | 1016.6 |
| 20260510041516 | 11 | 45 | 8.0 | 19.3 | 0.00 | 0.00 | 0.00 | 74 | 1016.5 |
| 20260510040517 | 11 | 0 | 8.0 | 16.1 | 0.00 | 0.00 | 0.00 | 73 | 1016.5 |
| 20260510035516 | 11 | 0 | 6.4 | 16.1 | 0.00 | 0.00 | 0.00 | 73 | 1016.6 |
| 20260510034517 | 11 | 23 | 8.0 | 20.9 | 0.00 | 0.00 | 0.00 | 73 | 1016.7 |
| 20260510033516 | 12 | 0 | 8.0 | 20.9 | 0.00 | 0.00 | 0.00 | 72 | 1016.7 |
| 20260510032516 | 12 | 23 | 6.4 | 16.1 | 0.00 | 0.00 | 0.00 | 72 | 1016.9 |
| 20260510031517 | 12 | 23 | 6.4 | 17.7 | 0.00 | 0.00 | 0.00 | 73 | 1016.8 |
| 20260510030516 | 12 | 0 | 9.7 | 20.9 | 0.00 | 0.00 | 0.00 | 72 | 1016.7 |
| 20260510025536 | 12 | 0 | 6.4 | 16.1 | 0.00 | 0.00 | 0.00 | 73 | 1016.8 |
| 20260510024516 | 13 | 0 | 8.0 | 17.7 | 0.00 | 0.00 | 0.00 | 72 | 1017.0 |
| 20260510023516 | 13 | 0 | 4.8 | 12.9 | 0.00 | 0.00 | 0.00 | 73 | 1017.0 |
| 20260510022516 | 13 | 23 | 4.8 | 14.5 | 0.00 | 0.00 | 0.00 | 71 | 1017.0 |
| 20260510021517 | 13 | 23 | 6.4 | 16.1 | 0.00 | 0.00 | 0.00 | 71 | 1016.9 |
| 20260510020517 | 13 | 0 | 4.8 | 14.5 | 0.00 | 0.00 | 0.00 | 72 | 1017.0 |
| 20260510015516 | 13 | 0 | 6.4 | 14.5 | 0.00 | 0.00 | 0.00 | 71 | 1017.0 |
| 20260510014516 | 13 | 0 | 4.8 | 16.1 | 0.00 | 0.00 | 0.00 | 72 | 1017.0 |
| 20260510013516 | 13 | 23 | 6.4 | 16.1 | 0.00 | 0.00 | 0.00 | 72 | 1016.9 |
| 20260510012516 | 13 | 23 | 6.4 | 16.1 | 0.00 | 0.00 | 0.00 | 72 | 1017.1 |
| 20260510011536 | 14 | 0 | 4.8 | 12.9 | 0.00 | 0.00 | 0.00 | 71 | 1017.1 |
| 20260510010516 | 14 | 23 | 6.4 | 19.3 | 0.00 | 0.00 | 0.00 | 72 | 1017.1 |
| 20260510005517 | 14 | 45 | 6.4 | 16.1 | 0.00 | 0.00 | 0.00 | 74 | 1017.1 |
| 20260510004516 | 14 | 23 | 6.4 | 19.3 | 0.00 | 0.00 | 0.00 | 76 | 1017.2 |
| 20260510003516 | 14 | 23 | 6.4 | 16.1 | 0.00 | 0.00 | 0.00 | 77 | 1017.3 |
| 20260510002516 | 14 | 23 | 6.4 | 16.1 | 0.00 | 0.00 | 0.00 | 77 | 1017.1 |
| 20260510001516 | 14 | 23 | 4.8 | 17.7 | 0.00 | 0.00 | 0.00 | 76 | 1017.3 |
| 20260510000536 | 14 | 23 | 6.4 | 16.1 | 0.00 | 0.00 | 0.00 | 77 | 1017.2 |
| 20260509235516 | 14 | 45 | 6.4 | 17.7 | 0.00 | 0.00 | 0.00 | 77 | 1017.2 |
| 20260509234517 | 14 | 45 | 8.0 | 17.7 | 0.00 | 0.00 | 0.00 | 77 | 1017.1 |
| 20260509233516 | 15 | 45 | 6.4 | 12.9 | 0.00 | 0.00 | 0.00 | 77 | 1017.1 |
| 20260509232017 | 15 | 45 | 4.8 | 12.9 | 0.00 | 0.00 | 0.00 | 76 | 1017.1 |
| 20260509231017 | 15 | 45 | 4.8 | 14.5 | 0.00 | 0.00 | 0.00 | 75 | 1017.1 |
| 20260509230017 | 15 | 45 | 4.8 | 11.3 | 0.00 | 0.00 | 0.00 | 75 | 1016.9 |
| 20260509225057 | 15 | 45 | 4.8 | 9.7 | 0.00 | 0.00 | 0.00 | 74 | 1016.8 |
| 20260509224017 | 15 | 45 | 3.2 | 11.3 | 0.00 | 0.00 | 0.00 | 73 | 1016.9 |
| 20260509223016 | 15 | 45 | 4.8 | 9.7 | 0.00 | 0.00 | 0.00 | 71 | 1016.8 |
| 20260509222016 | 15 | 45 | 4.8 | 9.7 | 0.00 | 0.00 | 0.00 | 70 | 1016.8 |
| 20260509221016 | 15 | 45 | 8.0 | 16.1 | 0.00 | 0.00 | 0.00 | 69 | 1016.8 |
| 20260509220037 | 16 | 45 | 6.4 | 17.7 | 0.00 | 0.00 | 0.00 | 68 | 1016.7 |
| 20260509215016 | 16 | 45 | 4.8 | 11.3 | 0.00 | 0.00 | 0.00 | 68 | 1016.9 |
| 20260509214036 | 16 | 68 | 4.8 | 14.5 | 0.00 | 0.00 | 0.00 | 68 | 1016.9 |
| 20260509213037 | 15 | 45 | 4.8 | 9.7 | 0.00 | 0.00 | 0.00 | 69 | 1016.6 |
| 20260509212017 | 15 | 68 | 1.6 | 9.7 | 0.00 | 0.00 | 0.00 | 70 | 1016.5 |
| 20260509211017 | 15 | 0.0 | 0.0 | 0.00 | 0.00 | 0.00 | 70 | 1016.6 | |
| 20260509210016 | 15 | 0.0 | 0.0 | 0.00 | 0.00 | 0.00 | 69 | 1016.6 | |
| 20260509205016 | 15 | 0.0 | 0.0 | 0.00 | 0.00 | 0.00 | 69 | 1016.5 | |
| 20260509204057 | 15 | 0.0 | 0.0 | 0.00 | 0.00 | 0.00 | 69 | 1016.4 | |
| 20260509203036 | 15 | 0.0 | 0.0 | 0.00 | 0.00 | 0.00 | 69 | 1016.5 | |
| 20260509202017 | 15 | 0.0 | 0.0 | 0.00 | 0.00 | 0.00 | 69 | 1016.4 | |
| 20260509201016 | 15 | 0.0 | 0.0 | 0.00 | 0.00 | 0.00 | 69 | 1016.5 | |
| 20260509200016 | 15 | 0.0 | 0.0 | 0.00 | 0.00 | 0.00 | 69 | 1016.5 | |
| 20260509195016 | 15 | 0.0 | 0.0 | 0.00 | 0.00 | 0.00 | 68 | 1016.5 | |
| 20260509194016 | 15 | 0.0 | 0.0 | 0.00 | 0.00 | 0.00 | 68 | 1016.6 | |
| 20260509193017 | 16 | 0.0 | 0.0 | 0.00 | 0.00 | 0.00 | 68 | 1016.5 | |
| 20260509192017 | 16 | 0.0 | 0.0 | 0.00 | 0.00 | 0.00 | 67 | 1016.6 | |
| 20260509191017 | 16 | 0.0 | 0.0 | 0.00 | 0.00 | 0.00 | 67 | 1016.5 | |
| 20260509190017 | 16 | 0.0 | 0.0 | 0.00 | 0.00 | 0.00 | 66 | 1016.4 | |
| 20260509185016 | 16 | 0.0 | 0.0 | 0.00 | 0.00 | 0.00 | 65 | 1016.4 | |
| 20260509184036 | 16 | 0.0 | 0.0 | 0.00 | 0.00 | 0.00 | 65 | 1016.4 | |
| 20260509183036 | 16 | 0.0 | 0.0 | 0.00 | 0.00 | 0.00 | 65 | 1016.4 | |
| 20260509182016 | 16 | 0.0 | 0.0 | 0.00 | 0.00 | 0.00 | 65 | 1016.4 | |
| 20260509181016 | 16 | 0.0 | 0.0 | 0.00 | 0.00 | 0.00 | 65 | 1016.5 | |
| 20260509180016 | 16 | 0.0 | 0.0 | 0.00 | 0.00 | 0.00 | 65 | 1016.4 | |
| 20260509175016 | 16 | 0.0 | 0.0 | 0.00 | 0.00 | 0.00 | 66 | 1016.3 | |
| 20260509174016 | 16 | 0.0 | 0.0 | 0.00 | 0.00 | 0.00 | 66 | 1016.3 | |
| 20260509173016 | 16 | 0.0 | 0.0 | 0.00 | 0.00 | 0.00 | 66 | 1016.5 | |
| 20260509172016 | 16 | 0.0 | 0.0 | 0.00 | 0.00 | 0.00 | 66 | 1016.6 | |
| 20260509171036 | 17 | 0.0 | 0.0 | 0.00 | 0.00 | 0.00 | 64 | 1016.5 | |
| 20260509170016 | 17 | 0.0 | 3.2 | 0.00 | 0.00 | 0.00 | 65 | 1016.5 | |
| 20260509165016 | 17 | 45 | 1.6 | 8.0 | 0.00 | 0.00 | 0.00 | 65 | 1016.6 |
| 20260509164016 | 17 | 23 | 1.6 | 8.0 | 0.00 | 0.00 | 0.00 | 65 | 1016.5 |
| 20260509163016 | 17 | 113 | 1.6 | 4.8 | 0.00 | 0.00 | 0.00 | 65 | 1016.5 |
| 20260509162016 | 17 | 90 | 1.6 | 6.4 | 0.00 | 0.00 | 0.00 | 65 | 1016.5 |
| 20260509161016 | 17 | 0.0 | 0.0 | 0.00 | 0.00 | 0.00 | 64 | 1016.6 | |
| 20260509160016 | 17 | 0.0 | 0.0 | 0.00 | 0.00 | 0.00 | 66 | 1016.7 | |
| 20260509155036 | 17 | 68 | 1.6 | 12.9 | 0.00 | 0.00 | 0.00 | 66 | 1016.8 |
| 20260509154036 | 17 | 90 | 1.6 | 6.4 | 0.00 | 0.00 | 0.00 | 67 | 1016.9 |